Weather History for Pinedale, WY

Change the Weather History Date:

Thursday, August 22, 2013

  Actual Average (KBPI) Record (KBPI)
Temperature  
Mean Temperature 60 °F 58 °F  
Max Temperature 75 °F 78 °F 90 °F (2009)
Min Temperature 46 °F 39 °F 24 °F (1988)
Degree Days  
Heating Degree Days 4 7  
Month to date heating degree days 102  
Since 1 June heating degree days 524  
Since 1 July heating degree days 219  
Cooling Degree Days 0 0  
Month to date cooling degree days 12  
Year to date cooling degree days 36  
Since 1 June cooling degree days 36  
Growing Degree Days 10 (Base 50)    
Moisture  
Dew Point 46 °F    
Average Humidity 60    
Maximum Humidity 100    
Minimum Humidity 27    
Precipitation  
Precipitation 0.00 in 0.02 in 0.52 in (1983)
Month to date precipitation 0.50  
Year to date precipitation 4.47  
Sea Level Pressure  
Sea Level Pressure 30.32 in    
Wind  
Wind Speed 5 mph (WNW)    
Max Wind Speed 18 mph    
Max Gust Speed 25 mph    
Visibility 10 miles    
Events Rain , Thunderstorm    
T = Trace of Precipitation, MM = Missing Value Source: NWS Daily Summary

Daily Weather History Graph

Daily Weather History Graph

Search for Another Location

Airport:

Trip Planner

Search our weather history database for the weather conditions in past years. The results will help you decide how hot, cold, wet, or windy it might be!

Date:

Astronomy

Aug. 22, 2013 Rise Set
Actual Time 6:33 AM MDT 8:09 PM MDT
Civil Twilight 6:03 AM MDT 8:39 PM MDT
Nautical Twilight 5:27 AM MDT 9:15 PM MDT
Astronomical Twilight 4:48 AM MDT 9:54 PM MDT
Moon 8:50 PM MDT 8:30 AM MDT
Length of Visible Light 14h 35m
Length of Day
13h 36m
Waning Gibbous, 96% of the Moon is Illuminated
Aug 22
Waning Gibbous
Aug 28
Last Quarter
Sep 5
New
Sep 12
First Quarter
Sep 19
Full

Hourly Weather History & Observations

Time (MDT) Temp. Windchill Dew Point Humidity Pressure Visibility Wind Dir Wind Speed Gust Speed Precip Events Conditions
12:15 AM 59.0 °F - 50.0 °F 72% 30.35 in 10.0 mi West 3.5 mph - N/A Thunderstorm Thunderstorm
12:35 AM 59.0 °F - 50.0 °F 72% 30.35 in 10.0 mi NNW 5.8 mph - N/A   Overcast
12:55 AM 57.2 °F - 50.0 °F 77% 30.35 in 10.0 mi WSW 5.8 mph - N/A   Overcast
1:15 AM 57.2 °F - 50.0 °F 77% 30.35 in 10.0 mi West 5.8 mph - N/A Thunderstorm Thunderstorm
1:35 AM 59.0 °F - 50.0 °F 72% 30.35 in 10.0 mi NW 4.6 mph - N/A   Overcast
1:55 AM 57.2 °F - 50.0 °F 77% 30.35 in 10.0 mi WSW 8.1 mph - N/A   Overcast
2:15 AM 59.0 °F - 50.0 °F 72% 30.35 in 10.0 mi North 3.5 mph - N/A Rain Light Rain
2:35 AM 55.4 °F - 53.6 °F 94% 30.35 in 10.0 mi West 4.6 mph - N/A   Overcast
2:55 AM 55.4 °F - 53.6 °F 94% 30.34 in 10.0 mi Calm Calm - N/A   Mostly Cloudy
3:15 AM 55.4 °F - 51.8 °F 88% 30.35 in 10.0 mi West 5.8 mph - N/A   Scattered Clouds
3:35 AM 53.6 °F - 51.8 °F 94% 30.35 in 10.0 mi West 5.8 mph - N/A   Clear
3:55 AM 51.8 °F - 51.8 °F 100% 30.35 in 10.0 mi West 4.6 mph - N/A   Mostly Cloudy
4:15 AM 53.6 °F - 51.8 °F 94% 30.35 in 10.0 mi WNW 5.8 mph - N/A   Scattered Clouds
4:35 AM 53.6 °F - 51.8 °F 94% 30.35 in 10.0 mi WNW 5.8 mph - N/A   Scattered Clouds
4:55 AM 53.6 °F - 51.8 °F 94% 30.35 in 10.0 mi WNW 5.8 mph - N/A   Mostly Cloudy
5:15 AM 51.8 °F - 51.8 °F 100% 30.35 in 10.0 mi NW 5.8 mph - N/A   Scattered Clouds
5:35 AM 51.8 °F - 50.0 °F 94% 30.36 in 10.0 mi WNW 4.6 mph - N/A   Clear
5:55 AM 50.0 °F - 50.0 °F 100% 30.36 in 10.0 mi Calm Calm - N/A   Clear
6:15 AM 50.0 °F - 50.0 °F 100% 30.36 in 10.0 mi Calm Calm - N/A   Scattered Clouds
6:35 AM 50.0 °F - 50.0 °F 100% 30.36 in 10.0 mi Calm Calm - N/A   Scattered Clouds
6:55 AM 46.4 °F 45.2 °F 46.4 °F 100% 30.36 in 7.0 mi WNW 3.5 mph - N/A   Clear
7:15 AM 46.4 °F 43.5 °F 46.4 °F 100% 30.37 in 10.0 mi WNW 5.8 mph - N/A   Clear
7:35 AM 46.4 °F 44.3 °F 46.4 °F 100% 30.36 in 10.0 mi West 4.6 mph - N/A   Scattered Clouds
7:55 AM 50.0 °F - 50.0 °F 100% 30.37 in 10.0 mi West 4.6 mph - N/A   Clear
8:15 AM 51.8 °F - 50.0 °F 94% 30.37 in 10.0 mi NW 4.6 mph - N/A   Clear
8:35 AM 53.6 °F - 51.8 °F 94% 30.37 in 10.0 mi West 3.5 mph - N/A   Clear
8:55 AM 55.4 °F - 51.8 °F 88% 30.37 in 10.0 mi WNW 6.9 mph - N/A   Clear
9:15 AM 57.2 °F - 51.8 °F 82% 30.37 in 10.0 mi NW 5.8 mph - N/A   Clear
9:35 AM 60.8 °F - 50.0 °F 68% 30.37 in 10.0 mi Calm Calm - N/A   Clear
9:55 AM 62.6 °F - 50.0 °F 63% 30.37 in 10.0 mi Calm Calm - N/A   Clear
10:15 AM 66.2 °F - 46.4 °F 49% 30.38 in 10.0 mi East 3.5 mph - N/A   Clear
10:35 AM 68.0 °F - 48.2 °F 49% 30.38 in 10.0 mi SSE 3.5 mph - N/A   Clear
10:55 AM 68.0 °F - 44.6 °F 43% 30.37 in 10.0 mi South 6.9 mph - N/A   Clear
11:15 AM 69.8 °F - 44.6 °F 40% 30.37 in 10.0 mi SE 3.5 mph - N/A   Clear
11:35 AM 69.8 °F - 42.8 °F 38% 30.37 in 10.0 mi South 3.5 mph - N/A   Clear
11:55 AM 69.8 °F - 42.8 °F 38% 30.36 in 10.0 mi Calm Calm - N/A   Clear
12:15 PM 73.4 °F - 42.8 °F 33% 30.35 in 10.0 mi WSW 3.5 mph - N/A   Clear
12:35 PM 71.6 °F - 42.8 °F 35% 30.35 in 10.0 mi Calm Calm - N/A   Clear
12:55 PM 73.4 °F - 42.8 °F 33% 30.34 in 10.0 mi North 3.5 mph - N/A   Clear
1:15 PM 75.2 °F - 42.8 °F 31% 30.33 in 10.0 mi WSW 3.5 mph - N/A   Scattered Clouds
1:35 PM 75.2 °F - 42.8 °F 31% 30.32 in 10.0 mi SSW 3.5 mph - N/A   Scattered Clouds
1:55 PM 73.4 °F - 41.0 °F 31% 30.32 in 10.0 mi West 3.5 mph - N/A   Mostly Cloudy
2:15 PM 75.2 °F - 39.2 °F 27% 30.31 in 10.0 mi SW 4.6 mph - N/A   Mostly Cloudy
2:35 PM 75.2 °F - 41.0 °F 29% 30.31 in 10.0 mi WSW 5.8 mph - N/A   Mostly Cloudy
2:55 PM 69.8 °F - 46.4 °F 43% 30.31 in 10.0 mi WSW 6.9 mph 25.3 mph N/A Rain Light Rain
3:15 PM 71.6 °F - 42.8 °F 35% 30.31 in 10.0 mi Calm Calm - N/A Thunderstorm Mostly Cloudy
3:35 PM 71.6 °F - 44.6 °F 38% 30.31 in 10.0 mi NW 12.7 mph 24.2 mph N/A   Mostly Cloudy
3:55 PM 69.8 °F - 44.6 °F 40% 30.31 in 10.0 mi NNW 18.4 mph - N/A Thunderstorm Mostly Cloudy
4:15 PM 69.8 °F - 46.4 °F 43% 30.30 in 10.0 mi NNW 17.3 mph - N/A   Overcast
4:35 PM 69.8 °F - 44.6 °F 40% 30.29 in 10.0 mi NNW 11.5 mph - N/A   Mostly Cloudy
4:55 PM 69.8 °F - 44.6 °F 40% 30.29 in 10.0 mi NNW 10.4 mph - N/A   Mostly Cloudy
5:15 PM 69.8 °F - 48.2 °F 46% 30.27 in 10.0 mi North 9.2 mph - N/A Rain Light Rain
5:35 PM 73.4 °F - 42.8 °F 33% 30.27 in 10.0 mi North 6.9 mph - N/A   Mostly Cloudy
5:55 PM 73.4 °F - 42.8 °F 33% 30.26 in 10.0 mi North 5.8 mph - N/A   Scattered Clouds
6:15 PM 71.6 °F - 42.8 °F 35% 30.25 in 10.0 mi NW 4.6 mph - N/A   Scattered Clouds
6:35 PM 73.4 °F - 42.8 °F 33% 30.24 in 10.0 mi NNW 3.5 mph - N/A   Clear
6:55 PM 73.4 °F - 42.8 °F 33% 30.24 in 10.0 mi NNE 3.5 mph - N/A   Clear
7:15 PM 73.4 °F - 42.8 °F 33% 30.23 in 10.0 mi SSE 3.5 mph - N/A   Clear
7:35 PM 71.6 °F - 42.8 °F 35% 30.23 in 10.0 mi Calm Calm - N/A   Clear
7:55 PM 69.8 °F - 42.8 °F 38% 30.23 in 10.0 mi SE 3.5 mph - N/A   Clear
8:15 PM 66.2 °F - 44.6 °F 46% 30.23 in 10.0 mi SE 5.8 mph - N/A   Clear
8:35 PM 64.4 °F - 44.6 °F 49% 30.24 in 10.0 mi Calm Calm - N/A   Scattered Clouds
8:55 PM 64.4 °F - 42.8 °F 45% 30.25 in 10.0 mi Calm Calm - N/A   Scattered Clouds
9:15 PM 68.0 °F - 41.0 °F 37% 30.26 in 10.0 mi SSW 6.9 mph - N/A   Mostly Cloudy
9:35 PM 66.2 °F - 41.0 °F 40% 30.26 in 10.0 mi South 8.1 mph - N/A   Scattered Clouds
9:55 PM 66.2 °F - 41.0 °F 40% 30.26 in 10.0 mi SSW 8.1 mph - N/A   Scattered Clouds
10:15 PM 66.2 °F - 41.0 °F 40% 30.27 in 10.0 mi ESE 3.5 mph - N/A   Scattered Clouds
10:35 PM 62.6 °F - 41.0 °F 45% 30.27 in 10.0 mi East 4.6 mph - N/A   Scattered Clouds
10:55 PM 60.8 °F - 41.0 °F 48% 30.27 in 10.0 mi NE 5.8 mph - N/A   Mostly Cloudy
11:15 PM 59.0 °F - 42.8 °F 55% 30.27 in 10.0 mi Calm Calm - N/A   Mostly Cloudy
11:35 PM 59.0 °F - 42.8 °F 55% 30.27 in 10.0 mi Calm Calm - N/A   Mostly Cloudy
11:55 PM 59.0 °F - 41.0 °F 51% 30.27 in 10.0 mi Calm Calm - N/A   Mostly Cloudy